This is the latest recevied weather packets stored in our database for station/object LX1CU-13. If no packets are shown the sender has not sent any weather packets the latest 10 day(s).
| Time | Temp. | Humidity | Pressure | Rain* | Wind** | Luminosity | Snow |
|---|---|---|---|---|---|---|---|
| 1777395532 | 22.78° C | 34% | 1013 hPa | 0 mm | - | - | - |
| 1777395232 | 23.33° C | 33% | 1012.9 hPa | 0 mm | - | - | - |
| 1777394932 | 23.33° C | 34% | 1012.9 hPa | 0 mm | - | - | - |
| 1777394632 | 22.78° C | 33% | 1012.8 hPa | 0 mm | - | - | - |
| 1777394332 | 22.78° C | 33% | 1012.9 hPa | 0 mm | - | - | - |
| 1777394032 | 22.22° C | 33% | 1012.9 hPa | 0 mm | - | - | - |
| 1777393732 | 22.22° C | 33% | 1012.9 hPa | 0 mm | - | - | - |
| 1777393432 | 22.22° C | 33% | 1012.8 hPa | 0 mm | - | - | - |
| 1777393132 | 22.22° C | 33% | 1012.9 hPa | 0 mm | - | - | - |
| 1777392832 | 21.67° C | 33% | 1012.8 hPa | 0 mm | - | - | - |
| 1777392532 | 21.67° C | 33% | 1012.7 hPa | 0 mm | - | - | - |
| 1777392232 | 21.67° C | 33% | 1012.7 hPa | 0 mm | - | - | - |
| 1777391932 | 21.11° C | 34% | 1012.7 hPa | 0 mm | - | - | - |
| 1777391632 | 21.11° C | 33% | 1012.7 hPa | 0 mm | - | - | - |
| 1777391332 | 21.67° C | 33% | 1012.9 hPa | 0 mm | - | - | - |
| 1777391032 | 21.67° C | 32% | 1012.8 hPa | 0 mm | - | - | - |
| 1777390732 | 21.67° C | 31% | 1012.7 hPa | 0 mm | - | - | - |
| 1777390432 | 22.78° C | 30% | 1012.7 hPa | 0 mm | - | - | - |
| 1777390132 | 23.33° C | 30% | 1012.8 hPa | 0 mm | - | - | - |
| 1777389832 | 23.89° C | 30% | 1012.9 hPa | 0 mm | - | - | - |
| 1777389532 | 24.44° C | 30% | 1012.9 hPa | 0 mm | - | - | - |
| 1777389232 | 24.44° C | 29% | 1012.8 hPa | 0 mm | - | - | - |
| 1777388932 | 24.44° C | 29% | 1012.7 hPa | 0 mm | - | - | - |
| 1777388632 | 25° C | 29% | 1012.9 hPa | 0 mm | - | - | - |
| 1777388332 | 25° C | 29% | 1012.8 hPa | 0 mm | - | - | - |
* Rain latest hour (hover to see other rain measurements)
** Current wind speed in m/s (hover to see current wind gust speed)